Location: Newark
(50.4348°N, 30.5552°E)
Time: 23:45:23
(UTC+00:00)

Envisat - Pass Details

Date: 08 December 2019
Orbit: 764 x 766 km, 98.1° (Epoch: 21 January)

Event Time Altitude Azimuth Distance (km) Brightness Sun altitude
Rises 17:11:37 0° 211° (SSW) 3,223 6.6 -30.2°
Reaches altitude 10° 17:14:41 10° 230° (SW) 2,303 6.0 -30.7°
Maximum altitude 17:18:02 18° 272° (W) 1,837 5.7 -31.3°
Drops below altitude 10° 17:21:25 10° 314° (NW) 2,315 6.0 -31.8°
Sets 17:24:31 0° 333° (NNW) 3,247 6.6 -32.3°
